Station KGCA2 - 9459881 - King Cove, AK Image indicating link to RSS feed of recent meteorological observations for station KGCA2


Conditions at KGCA2 as of
(3:18 am AKDT)
1118 GMT on 05/04/2026:
     

Click on the graph icon in the table below to see a time series plot of the last five days of that observation.

5-day plot - Wind Direction Wind Direction (WDIR): NW ( 320 deg true )
5-day plot - Wind Speed Wind Speed (WSPD): 22.9 kts
5-day plot - Wind Gust Wind Gust (GST): 32.1 kts
5-day plot - Atmospheric Pressure Atmospheric Pressure (PRES):29.76 in
5-day plot - Wind Speed at 10 Meters Wind Speed at 10 meters (WSPD10M): 23.3 kts
5-day plot - Wind Speed at 20 Meters Wind Speed at 20 meters (WSPD20M): 25.3 kts
5-day plot -  Wind Speed, Wind Gust and Atmospheric Pressure Combined plot of Wind Speed, Gust, and Air Pressure
NOS Water Level Observation Network Water Level
Previous observations
TIME
(AKDT)
5-day plot - Wind Direction
WDIR
 
5-day plot - Wind Speed
WSPD
kts
5-day plot - Wind Gust
GST
kts
5-day plot - Wave Height
WVHT
ft
5-day plot - Dominant Wave Period
DPD
sec
5-day plot - Average Wave Period
APD
sec
5-day plot - Mean Wave Direction
MWD
 
5-day plot - Atmospheric Pressure
PRES
in
5-day plot - Pressure Tendency
PTDY
in
5-day plot - Air Temperature
ATMP
°F
5-day plot - Water Temperature
WTMP
°F
5-day plot - Dew Point
DEWP
°F
5-day plot - Salinity
SAL
psu
5-day plot - Visibility
VIS
nmi
5-day plot - Tide (above MLLW)
TIDE
ft
2026-05-04 03:12 am NW 20.0 28.0----29.77-------
2026-05-04 03:06 amNNW 22.0 28.9----29.77-------
2026-05-04 03:00 amNNW 22.0 33.0----29.78-0.09 34.0-----
2026-05-04 02:54 am NW 24.1 29.9----29.77- 34.2-----
2026-05-04 02:48 amNNW 22.0 32.1----29.77-------
2026-05-04 02:42 amNNW 22.0 31.1----29.78-------
2026-05-04 02:36 am N 22.0 28.0----29.78-------
2026-05-04 02:30 amNNW 21.0 31.1------ 33.3-----
2026-05-04 02:24 am N 22.9 31.1------ 33.4-----
2026-05-04 02:18 am-------29.80-------
2026-05-04 02:12 am-------29.80-------
2026-05-04 02:06 am-------29.81-------
2026-05-04 02:00 amNNW 22.0 27.0------ 33.8-----
2026-05-04 01:54 amNNW 22.0 28.0------ 33.6-----
2026-05-04 01:48 amNNW 20.0 28.9----29.82-------
2026-05-04 01:42 amNNW 21.0 28.0----29.82-------
2026-05-04 01:36 amNNW 21.0 25.1----29.82-------
2026-05-04 01:30 am-------29.82- 33.6-----
2026-05-04 01:24 am-------29.83- 33.6-----
2026-05-04 01:18 am NW 20.0 26.0----29.82-------
2026-05-04 01:12 am NW 22.0 27.0----29.83-------
2026-05-04 01:06 am NW 21.0 28.0----29.83-------
2026-05-04 01:00 amNNW 21.0 26.0----29.83-0.06------
2026-05-04 12:54 amNNW 19.0 25.1----29.83-------
2026-05-04 12:48 amNNW 17.1 22.9----29.84- 35.1-----
2026-05-04 12:42 amNNW 18.1 24.1----29.84- 35.8-----
2026-05-04 12:36 am NW 17.1 21.0----29.85- 35.2-----
2026-05-04 12:30 amNNW 15.9 22.9------ 35.1-----
2026-05-04 12:24 amNNW 15.0 20.0------ 35.8-----
2026-05-04 12:18 amNNW 17.1 22.0------------
2026-05-04 12:12 amNNW 14.0 18.1------------
2026-05-04 12:06 am N 15.0 19.0------------
2026-05-04 12:00 amNNW 15.0 18.1----29.87-0.04 36.3-----
2026-05-03 11:54 pm N 15.0 20.0----29.86- 36.7-----
2026-05-03 11:48 pm N 17.1 21.0----29.87- 35.4-----
2026-05-03 11:42 pmNNW 13.0 17.1----29.88- 35.6-----
2026-05-03 11:36 pmNNW 15.0 19.0----29.88- 35.8-----
2026-05-03 11:30 pm N 13.0 17.1----29.88- 35.2-----
2026-05-03 11:24 pm N 14.0 18.1----29.88- 35.4-----
2026-05-03 11:18 pm N 14.0 18.1----29.88-------
2026-05-03 11:12 pmNNW 17.1 20.0----29.89-------
2026-05-03 11:06 pm N 18.1 22.0----29.88-------
2026-05-03 11:00 pm N 18.1 21.0----29.88-0.04 36.0-----
2026-05-03 10:54 pm N 19.0 22.0----29.88- 35.4-----
2026-05-03 10:48 pm N 19.0 22.9----29.88-------
2026-05-03 10:42 pmNNW 19.0 24.1----29.88-------
2026-05-03 10:36 pmNNW 19.0 25.1----29.88-------
2026-05-03 10:30 pmNNW 19.0 25.1----29.88- 36.3-----
2026-05-03 10:24 pmNNW 19.0 27.0----29.88- 36.9-----
2026-05-03 10:18 pmNNW 20.0 24.1----29.88-------
2026-05-03 10:12 pmNNW 18.1 22.0----29.88-------
2026-05-03 10:06 pmNNW 19.0 22.9----29.88-------
2026-05-03 10:00 pmNNW 19.0 22.9----29.89-0.03 36.1-----
2026-05-03 09:54 pmNNW 17.1 22.0----29.89- 36.5-----
2026-05-03 09:48 pmNNW 17.1 21.0----29.89- 36.7-----
2026-05-03 09:42 pmNNW 14.0 20.0----29.90- 37.2-----
2026-05-03 09:36 pmNNW 15.9 19.0----29.89- 37.0-----
2026-05-03 09:30 pmNNW 12.0 18.1----29.90- 37.6-----
2026-05-03 09:24 pm N 15.0 19.0----29.90- 37.8-----
2026-05-03 09:18 pm N 13.0 17.1----29.90-------
2026-05-03 09:12 pmNNW 9.9 17.1----29.90-------
2026-05-03 09:06 pm N 14.0 19.0----29.90-------
2026-05-03 09:00 pm N 15.0 20.0----29.90-0.02 38.8-----
2026-05-03 08:54 pm N 14.0 21.0----29.91- 39.6-----
2026-05-03 08:48 pm N 15.0 19.0----29.91-------
2026-05-03 08:42 pmNNW 11.1 18.1----29.91-------
2026-05-03 08:36 pm NW 13.0 22.9----29.91-------
2026-05-03 08:30 pm NW 14.0 20.0----29.91- 40.6-----
2026-05-03 08:24 pm NW 14.0 20.0----29.91- 40.8-----
2026-05-03 08:18 pm NW 14.0 20.0----29.91-------
2026-05-03 08:12 pm NW 15.9 20.0----29.91-------
2026-05-03 08:06 pm NW 18.1 22.9----29.91-------
2026-05-03 08:00 pm NW 17.1 22.9----29.92-0.03 41.4-----
2026-05-03 07:54 pm NW 15.0 22.0----29.92- 41.5-----
2026-05-03 07:48 pm NW 17.1 22.9----29.92-------
2026-05-03 07:42 pm NW 17.1 25.1----29.92-------
2026-05-03 07:36 pm NW 18.1 22.9----29.91-------
2026-05-03 07:30 pm NW 20.0 26.0----29.91- 41.9-----
2026-05-03 07:24 pm NW 19.0 24.1----29.92- 42.4-----
2026-05-03 07:18 pm NW 15.9 22.0----29.92-------
2026-05-03 07:12 pm NW 15.0 22.9----29.91-------
2026-05-03 07:06 pm NW 14.0 24.1----29.91-------
2026-05-03 07:00 pm NW 15.0 21.0----29.92-0.04 43.0-----
2026-05-03 06:54 pm NW 14.0 20.0----29.92- 43.3-----
2026-05-03 06:48 pm NW 17.1 20.0----29.92- 43.3-----
2026-05-03 06:42 pm NW 15.9 21.0----29.92- 43.5-----
2026-05-03 06:36 pm NW 15.0 20.0----29.92- 43.7-----
2026-05-03 06:30 pm NW 15.9 22.0----29.92- 44.1-----
2026-05-03 06:24 pm NW 18.1 22.0----29.92- 43.9-----
2026-05-03 06:18 pm NW 18.1 21.0----29.92-------
2026-05-03 06:12 pmWNW 14.0 19.0----29.93-------
2026-05-03 06:06 pm NW 18.1 24.1----29.93-------
2026-05-03 06:00 pm NW 15.0 21.0----29.93-0.05 44.4-----
2026-05-03 05:54 pm NW 15.9 22.0----29.93- 44.4-----
2026-05-03 05:48 pm NW 15.0 21.0----29.93-------
2026-05-03 05:42 pm NW 15.9 22.0----29.93-------
2026-05-03 05:36 pm NW 17.1 21.0----29.94-------
2026-05-03 05:30 pm NW 15.9 20.0----29.94- 44.6-----
2026-05-03 05:24 pm NW 17.1 21.0----29.94- 44.8-----
2026-05-03 05:18 pm NW 14.0 20.0----29.94-------
2026-05-03 05:12 pm NW 14.0 20.0----29.94-------
2026-05-03 05:06 pm NW 15.9 19.0----29.94-------
2026-05-03 05:00 pm NW 15.9 21.0----29.95-0.05 45.0-----
2026-05-03 04:54 pm NW 15.9 22.9----29.95- 44.8-----
2026-05-03 04:48 pm NW 18.1 22.0----29.95-------
2026-05-03 04:42 pm NW 15.9 22.0----29.95-------
2026-05-03 04:36 pm NW 17.1 22.0----29.95-------
2026-05-03 04:30 pm NW 17.1 22.0----29.96- 44.6-----
2026-05-03 04:24 pm NW 15.9 22.0----29.96- 44.8-----
2026-05-03 04:18 pm NW 15.9 22.0----29.96-------
2026-05-03 04:12 pm NW 14.0 19.0----29.96-------
2026-05-03 04:06 pm NW 17.1 22.9----29.96-------
2026-05-03 04:00 pm NW 15.9 22.0----29.96-0.04 44.8-----
2026-05-03 03:54 pm NW 15.9 21.0----29.96- 44.4-----
2026-05-03 03:48 pm NW 15.9 22.0----29.96-------
2026-05-03 03:42 pm NW 15.9 20.0----29.96-------
2026-05-03 03:36 pm NW 15.0 21.0----29.97-------
2026-05-03 03:30 pm NW 17.1 22.9----29.97- 44.2-----
2026-05-03 03:24 pm NW 15.0 21.0----29.97- 44.1-----
2026-05-03 03:18 pmNNW 15.0 20.0----29.97-------
2026-05-03 03:12 pm NW 15.9 21.0----29.97-------
2026-05-03 03:06 pmNNW 15.0 20.0----29.97-------
2026-05-03 03:00 pm NW 14.0 19.0----29.98-0.03 44.1-----
2026-05-03 02:54 pmNNW 15.0 19.0----29.98- 44.1-----
2026-05-03 02:48 pmNNW 15.0 20.0----29.98-------
2026-05-03 02:42 pmNNW 14.0 19.0----29.98-------
2026-05-03 02:36 pmNNW 15.0 20.0----29.98-------
2026-05-03 02:30 pmNNW 14.0 18.1----29.98- 44.2-----
2026-05-03 02:24 pm NW 14.0 19.0----29.99- 43.9-----
2026-05-03 02:18 pm NW 13.0 20.0----29.99-------
2026-05-03 02:12 pmNNW 13.0 19.0----29.99-------
2026-05-03 02:06 pm NW 12.0 18.1----29.99-------
2026-05-03 02:00 pm NW 12.0 17.1----29.99-0.01 44.1-----
2026-05-03 01:54 pm NW 9.9 15.0----29.99- 43.9-----
2026-05-03 01:48 pmNNW 14.0 18.1----29.99-------
2026-05-03 01:42 pm NW 11.1 18.1----29.99-------
2026-05-03 01:36 pm NW 12.0 17.1----29.99-------
2026-05-03 01:30 pmNNW 12.0 17.1----30.00- 43.0-----
2026-05-03 01:24 pm NW 9.9 17.1----30.00- 43.3-----
2026-05-03 01:18 pmNNW 12.0 17.1----30.00-------
2026-05-03 01:12 pm NW 13.0 18.1----30.00-------
2026-05-03 01:06 pmNNW 13.0 18.1----30.00-------
2026-05-03 01:00 pmNNW 13.0 19.0----30.00-0.02 42.3-----
2026-05-03 12:54 pmNNW 13.0 17.1----30.00- 42.6-----
2026-05-03 12:48 pmNNW 13.0 17.1----30.00-------
2026-05-03 12:42 pmNNW 11.1 15.9----30.00-------
2026-05-03 12:36 pmNNW 12.0 17.1----30.00-------
2026-05-03 12:30 pmNNW 12.0 17.1----30.00- 41.5-----
2026-05-03 12:24 pmNNW 11.1 15.9----30.00- 42.1-----
2026-05-03 12:18 pm N 12.0 17.1----30.01-------
2026-05-03 12:12 pmNNW 12.0 18.1----30.01-------
2026-05-03 12:06 pmNNW 13.0 17.1----30.01-------
2026-05-03 12:00 pmNNW 15.0 19.0----30.01-0.01 41.0-----
2026-05-03 11:54 am N 12.0 17.1----30.00- 41.5-----
2026-05-03 11:48 amNNW 12.0 15.9----30.01-------
2026-05-03 11:42 am N 9.9 18.1----30.01-------
2026-05-03 11:36 amNNW 11.1 15.9----30.01-------
2026-05-03 11:30 am N 12.0 15.0----30.01- 40.8-----
2026-05-03 11:24 amNNW 11.1 18.1----30.01- 40.5-----
2026-05-03 11:18 am NW 11.1 17.1----30.01-------
2026-05-03 11:12 amNNW 7.0 12.0----30.01-------
2026-05-03 11:06 am N 7.0 13.0----30.01-------
2026-05-03 11:00 am N 8.0 14.0----30.01+0.00 41.0-----
2026-05-03 10:54 am N 7.0 11.1----30.01- 41.4-----
2026-05-03 10:48 am N 8.9 13.0----30.01-------
2026-05-03 10:42 am N 9.9 12.0----30.01-------
2026-05-03 10:36 am N 12.0 15.9----30.01-------
2026-05-03 10:30 am N 9.9 17.1----30.01- 39.6-----
2026-05-03 10:24 am N 8.9 14.0----30.01- 39.2-----
2026-05-03 10:18 am N 8.0 13.0----30.02-------
2026-05-03 10:12 amNNE 6.0 12.0----30.01-------
2026-05-03 10:06 am N 7.0 12.0----30.02-------
2026-05-03 10:00 am N 8.9 12.0----30.02+0.00 39.2-----
2026-05-03 09:54 am N 7.0 8.9----30.02- 39.6-----
2026-05-03 09:48 amNNE 6.0 12.0----30.02-------
2026-05-03 09:42 amNNE 8.0 13.0----30.02-------
2026-05-03 09:36 am N 9.9 12.0----30.02-------
2026-05-03 09:30 am N 6.0 9.9----30.02- 38.5-----
2026-05-03 09:24 amNNE 6.0 12.0----30.01- 38.3-----
2026-05-03 09:18 am N 7.0 11.1----30.02-------
2026-05-03 09:12 amNNW 2.9 13.0----30.02-------
2026-05-03 09:06 amNNE 4.1 11.1----30.02-------
2026-05-03 09:00 am N 5.1 11.1----30.02+0.00 37.2-----
2026-05-03 08:54 am N 7.0 11.1----30.01- 37.0-----
2026-05-03 08:48 amENE 6.0 9.9----30.01-------
2026-05-03 08:42 am NE 6.0 9.9----30.01-------
2026-05-03 08:36 amNNE 7.0 9.9----30.01-------
2026-05-03 08:30 am E 1.9 5.1----30.01- 37.2-----
2026-05-03 08:24 amNNE 5.1 11.1----30.01- 37.4-----
2026-05-03 08:18 am N 7.0 11.1----30.01-------
2026-05-03 08:12 amNNE 7.0 8.9----30.01-------
2026-05-03 08:06 am N 6.0 17.1----30.01-------
2026-05-03 08:00 am N 2.9 15.0----30.01+0.00 36.1-----
2026-05-03 07:54 amNNE 11.1 15.0----30.01- 36.0-----
2026-05-03 07:48 amNNE 11.1 15.0----30.01-------
2026-05-03 07:42 amNNE 9.9 13.0----30.01-------
2026-05-03 07:36 amNNE 8.9 13.0----30.01-------
2026-05-03 07:30 am N 6.0 8.9----30.01- 37.0-----
2026-05-03 07:24 amNNE 9.9 17.1----30.01- 36.1-----
2026-05-03 07:18 amNNE 5.1 9.9----30.01-------
2026-05-03 07:12 am N 2.9 7.0----30.01-------
2026-05-03 07:06 amNNE 5.1 8.0----30.01-------
2026-05-03 07:00 amNNW 2.9 6.0----30.01+0.00 37.0-----
2026-05-03 06:54 am N 5.1 8.9----30.01- 37.2-----
2026-05-03 06:48 am NE 1.9 8.9----30.01-------
2026-05-03 06:42 am NW 1.0 1.9----30.01-------
2026-05-03 06:36 am- 0.0 1.9----30.01-------
2026-05-03 06:30 amNNW 1.9 8.0----30.01- 36.3-----
2026-05-03 06:24 am S 1.0 2.9----30.01- 36.3-----
2026-05-03 06:18 amWSW 1.0 2.9----30.02-------
2026-05-03 06:12 am- 0.0 0.0----30.02-------
2026-05-03 06:06 am- 0.0 1.0----30.02-------
2026-05-03 06:00 am- 0.0 2.9----30.02+0.00 35.6-----
2026-05-03 05:54 am- 0.0 2.9----30.02- 35.6-----
2026-05-03 05:48 am- 0.0 0.0----30.02-------
2026-05-03 05:42 am- 0.0 1.9----30.01-------
2026-05-03 05:36 am- 0.0 1.9----30.01-------
2026-05-03 05:30 am- 0.0 4.1----30.01- 34.3-----
2026-05-03 05:24 amNNE 1.9 2.9----30.01- 34.0-----
2026-05-03 05:18 am- 0.0 2.9----30.01-------
2026-05-03 05:12 amWNW 1.9 5.1----30.01-------
2026-05-03 05:06 amNNE 5.1 5.1----30.01-------
2026-05-03 05:00 am NE 1.9 2.9----30.01-0.01 33.4-----
2026-05-03 04:54 am- 0.0 1.9----30.01- 33.6-----
2026-05-03 04:48 am N 1.9 6.0----30.01-------
2026-05-03 04:42 am N 2.9 6.0----30.01-------
2026-05-03 04:36 amNNW 1.0 4.1----30.01-------
2026-05-03 04:30 am- 0.0 4.1----30.01- 33.8-----
2026-05-03 04:24 am NW 1.0 1.9----30.01- 33.4-----
2026-05-03 04:18 am- 0.0 1.9----30.01-------
2026-05-03 04:12 am N 1.9 2.9----30.01-------
2026-05-03 04:06 am N 1.0 2.9----30.01-------
2026-05-03 04:00 am N 2.9 4.1----30.01-0.01 31.6-----
2026-05-03 03:54 am N 2.9 2.9----30.01- 31.8-----
2026-05-03 03:48 am N 1.9 1.9------------
2026-05-03 03:42 am- 0.0 0.0------------
2026-05-03 03:36 am- 0.0 0.0------------
2026-05-03 03:30 am- 0.0 1.9----30.02- 32.2-----
2026-05-03 03:24 am- 0.0 1.0----30.02- 32.5-----
2026-05-03 03:18 am- 0.0 1.0----30.02-------
2026-05-03 03:12 am- 0.0 1.9----30.02-------
2026-05-03 03:06 am- 0.0 1.9----30.02-------
2026-05-03 03:00 amNNE 1.9 1.9----30.02+0.01 33.4-----
2026-05-03 02:54 am N 1.9 2.9----30.02- 33.4-----